MYT554 EGGW-LEIB

Flight info

Callsign MYT554
Flight time N/A
Altitude 37000
Route RODNI N27 ICTAM Q63 CPT UN859 SOPIL DCT BALAN DCT EVPOK DCT NARAK DCT GAI DCT LOMRA DCT ROCAN/N0464F310 DCT PUMAL N859 BCN Z174 CORDA
Aircraft A320/M-SDE3FGHIRWY/LB1

Departure

Time N/A
Airport London Luton Airport (EGGW)

Arrival

Time 2026-05-01 10:55
Airport Ibiza Airport (LEIB)
Time Latitude Longitude Altitude Speed Heading
2026-05-01 09:51 46.70326 1.04124 37254 ft 452 kts 183°
2026-05-01 09:51 46.67222 1.03992 37253 ft 452 kts 182°
2026-05-01 09:52 46.60938 1.03727 37256 ft 452 kts 183°
2026-05-01 09:52 46.54647 1.03463 37255 ft 452 kts 183°
2026-05-01 09:53 46.48384 1.04396 37259 ft 455 kts 168°
2026-05-01 09:53 46.42210 1.06483 37262 ft 456 kts 168°
2026-05-01 09:54 46.36026 1.08561 37252 ft 456 kts 169°
2026-05-01 09:54 46.29838 1.10625 37254 ft 456 kts 169°
2026-05-01 09:55 46.23646 1.12679 37273 ft 457 kts 169°
2026-05-01 09:55 46.17447 1.14724 37273 ft 457 kts 169°
2026-05-01 09:56 46.11252 1.16769 37270 ft 457 kts 169°
2026-05-01 09:56 46.05053 1.18815 37282 ft 457 kts 169°
2026-05-01 09:57 45.96646 1.21592 37296 ft 456 kts 169°
2026-05-01 09:57 45.84285 1.25654 37294 ft 455 kts 169°
2026-05-01 09:58 45.71923 1.29678 37289 ft 455 kts 169°
2026-05-01 09:58 45.59582 1.33682 37277 ft 454 kts 169°
2026-05-01 09:59 45.47250 1.37677 37284 ft 454 kts 169°
2026-05-01 09:59 45.34941 1.41647 37272 ft 452 kts 169°
2026-05-01 10:00 45.22657 1.45575 37278 ft 452 kts 169°
2026-05-01 10:00 45.10379 1.49496 37296 ft 451 kts 169°
2026-05-01 10:01 44.98129 1.53396 37240 ft 451 kts 169°
2026-05-01 10:01 44.85895 1.57264 37260 ft 449 kts 169°
2026-05-01 10:02 44.73773 1.61084 37257 ft 449 kts 169°
2026-05-01 10:02 44.61586 1.64921 37254 ft 449 kts 169°
2026-05-01 10:03 44.49397 1.68723 37260 ft 448 kts 169°
2026-05-01 10:03 44.39272 1.71873 37247 ft 448 kts 169°
2026-05-01 10:04 44.26178 1.75796 37257 ft 446 kts 171°
2026-05-01 10:04 44.01713 1.81026 37243 ft 444 kts 173°
2026-05-01 10:05 43.88142 1.83374 37246 ft 442 kts 178°
2026-05-01 10:05 43.82040 1.83797 37244 ft 442 kts 178°
2026-05-01 10:06 43.73253 1.84525 37246 ft 441 kts 176°
2026-05-01 10:06 43.67165 1.85135 37244 ft 441 kts 176°
2026-05-01 10:07 43.61047 1.85746 37245 ft 440 kts 177°
2026-05-01 10:07 43.54927 1.86340 37239 ft 440 kts 177°
2026-05-01 10:08 43.45758 1.87219 37245 ft 440 kts 177°
2026-05-01 10:09 43.39646 1.87806 37229 ft 440 kts 177°
2026-05-01 10:09 43.33534 1.88391 37236 ft 440 kts 178°
2026-05-01 10:10 43.27423 1.88976 37245 ft 440 kts 178°
2026-05-01 10:10 43.18284 1.89856 37244 ft 441 kts 178°
2026-05-01 10:11 43.12163 1.90441 37247 ft 441 kts 177°
2026-05-01 10:11 43.06042 1.91017 37231 ft 441 kts 177°
2026-05-01 10:12 42.99918 1.91591 37231 ft 441 kts 178°
2026-05-01 10:13 42.90713 1.92463 37220 ft 443 kts 178°
2026-05-01 10:13 42.84560 1.93042 37225 ft 443 kts 178°
2026-05-01 10:14 42.75318 1.93927 37238 ft 444 kts 178°
2026-05-01 10:14 42.69154 1.94506 37240 ft 444 kts 178°
2026-05-01 10:15 42.59856 1.95969 37256 ft 446 kts 173°
2026-05-01 10:15 42.47679 1.98570 37278 ft 445 kts 175°
2026-05-01 10:16 42.35338 1.99761 37278 ft 444 kts 178°
2026-05-01 10:17 42.16849 2.01697 37286 ft 443 kts 178°
2026-05-01 10:17 41.95303 2.03991 37279 ft 442 kts 178°
2026-05-01 10:18 41.58678 2.07867 37271 ft 439 kts 178°
2026-05-01 10:19 41.34345 2.10396 37267 ft 438 kts 178°
2026-05-01 10:19 41.26141 2.11394 37274 ft 437 kts 175°
2026-05-01 10:20 41.20170 2.12445 35910 ft 437 kts 174°
2026-05-01 10:20 41.17152 2.13005 35097 ft 438 kts 175°
2026-05-01 10:20 41.14129 2.13554 34631 ft 440 kts 175°
2026-05-01 10:20 41.11081 2.14088 34407 ft 441 kts 175°
2026-05-01 10:21 41.08080 2.14595 35014 ft 432 kts 176°
2026-05-01 10:21 41.02062 2.15588 35236 ft 439 kts 175°
2026-05-01 10:22 40.92933 2.17096 34963 ft 441 kts 175°
2026-05-01 10:22 40.86839 2.18105 34229 ft 442 kts 175°
2026-05-01 10:23 40.83784 2.18609 33823 ft 442 kts 175°
2026-05-01 10:23 40.80066 2.19224 33331 ft 444 kts 175°
2026-05-01 10:23 40.76996 2.19735 32933 ft 445 kts 175°
2026-05-01 10:24 40.70872 2.20750 32156 ft 447 kts 175°
2026-05-01 10:24 40.64673 2.21769 31398 ft 450 kts 175°
2026-05-01 10:25 40.58437 2.22800 30654 ft 451 kts 175°
2026-05-01 10:25 40.52188 2.23834 29865 ft 454 kts 174°
2026-05-01 10:26 40.49039 2.24347 29457 ft 457 kts 175°
2026-05-01 10:26 40.42859 2.25360 28703 ft 461 kts 175°
2026-05-01 10:26 40.33797 2.26851 27655 ft 467 kts 174°
2026-05-01 10:27 40.27322 2.27901 26928 ft 469 kts 174°
2026-05-01 10:27 40.20832 2.28949 26233 ft 470 kts 175°
2026-05-01 10:28 40.17622 2.29471 25882 ft 472 kts 174°
2026-05-01 10:28 40.11076 2.30538 25215 ft 474 kts 174°
2026-05-01 10:28 40.07811 2.31072 24880 ft 472 kts 174°
2026-05-01 10:29 40.01321 2.32129 24230 ft 468 kts 174°
2026-05-01 10:29 39.98091 2.32652 23902 ft 467 kts 174°
2026-05-01 10:30 39.91659 2.33688 23139 ft 462 kts 174°
2026-05-01 10:30 39.85312 2.34719 22347 ft 458 kts 174°
2026-05-01 10:31 39.79065 2.35725 21075 ft 446 kts 174°
2026-05-01 10:31 39.72961 2.36702 19842 ft 439 kts 174°
2026-05-01 10:32 39.66870 2.37682 19558 ft 441 kts 174°
2026-05-01 10:32 39.63823 2.38151 19330 ft 439 kts 177°
2026-05-01 10:32 39.57868 2.37298 19188 ft 434 kts 199°
2026-05-01 10:33 39.52621 2.33546 19185 ft 433 kts 221°
2026-05-01 10:33 39.48845 2.27564 18743 ft 429 kts 237°
2026-05-01 10:34 39.47222 2.24327 18508 ft 427 kts 237°
2026-05-01 10:34 39.45595 2.21112 18252 ft 426 kts 237°
2026-05-01 10:34 39.43969 2.17919 17985 ft 424 kts 237°
2026-05-01 10:35 39.40746 2.11621 16463 ft 414 kts 236°
2026-05-01 10:35 39.39185 2.08567 15533 ft 410 kts 236°
2026-05-01 10:35 39.37619 2.05498 14614 ft 406 kts 236°
2026-05-01 10:35 39.36072 2.02465 13687 ft 402 kts 236°
2026-05-01 10:36 39.33031 1.96516 11748 ft 394 kts 236°
2026-05-01 10:36 39.31542 1.93607 10824 ft 382 kts 236°
2026-05-01 10:36 39.30082 1.90756 9991 ft 381 kts 236°
2026-05-01 10:37 39.28653 1.87975 9318 ft 358 kts 236°
2026-05-01 10:37 39.26141 1.83101 9060 ft 303 kts 237°
2026-05-01 10:37 39.24996 1.80879 8927 ft 290 kts 237°
2026-05-01 10:38 39.23894 1.78742 8798 ft 284 kts 237°
2026-05-01 10:38 39.22814 1.76649 8671 ft 283 kts 237°
2026-05-01 10:38 39.21725 1.74539 8548 ft 282 kts 237°
2026-05-01 10:38 39.20636 1.72428 8423 ft 282 kts 236°
2026-05-01 10:39 39.19508 1.70364 8296 ft 282 kts 234°
2026-05-01 10:39 39.18328 1.68344 8108 ft 282 kts 233°
2026-05-01 10:39 39.17133 1.66350 7861 ft 281 kts 232°
2026-05-01 10:39 39.15934 1.64361 7617 ft 282 kts 233°
2026-05-01 10:40 39.14733 1.62368 7379 ft 281 kts 233°
2026-05-01 10:40 39.13543 1.60379 7137 ft 280 kts 233°
2026-05-01 10:40 39.12355 1.58388 6897 ft 280 kts 233°
2026-05-01 10:40 39.11172 1.56400 6659 ft 279 kts 233°
2026-05-01 10:41 39.10000 1.54423 6416 ft 276 kts 233°
2026-05-01 10:41 39.08838 1.52464 6216 ft 276 kts 233°
2026-05-01 10:41 39.06479 1.48499 5808 ft 278 kts 233°
2026-05-01 10:42 39.05302 1.46525 5610 ft 278 kts 233°
2026-05-01 10:42 39.04133 1.44560 5412 ft 276 kts 233°
2026-05-01 10:42 39.02980 1.42587 5248 ft 275 kts 234°
2026-05-01 10:42 39.01855 1.40638 5125 ft 275 kts 235°
2026-05-01 10:43 39.00743 1.38705 5000 ft 262 kts 234°
2026-05-01 10:43 38.99686 1.36876 4872 ft 249 kts 235°
2026-05-01 10:43 38.98669 1.35118 4742 ft 242 kts 234°
2026-05-01 10:43 38.97676 1.33399 4502 ft 237 kts 235°
2026-05-01 10:44 38.96688 1.31691 4377 ft 239 kts 234°
2026-05-01 10:44 38.95691 1.29975 4249 ft 240 kts 234°
2026-05-01 10:44 38.94694 1.28261 4135 ft 240 kts 234°
2026-05-01 10:44 38.93697 1.26546 4024 ft 239 kts 234°
2026-05-01 10:45 38.92703 1.24840 4010 ft 239 kts 234°
2026-05-01 10:45 38.91710 1.23134 4011 ft 239 kts 234°
2026-05-01 10:45 38.90712 1.21419 4010 ft 240 kts 234°
2026-05-01 10:45 38.89712 1.19701 4011 ft 240 kts 234°
2026-05-01 10:46 38.88728 1.17973 4010 ft 239 kts 240°
2026-05-01 10:46 38.87937 1.16111 4152 ft 241 kts 244°
2026-05-01 10:46 38.87144 1.14196 4013 ft 240 kts 244°
2026-05-01 10:46 38.86361 1.12314 4012 ft 239 kts 244°
2026-05-01 10:47 38.85576 1.10438 4012 ft 239 kts 244°
2026-05-01 10:47 38.84789 1.08560 4013 ft 239 kts 243°
2026-05-01 10:47 38.84015 1.06707 4015 ft 239 kts 244°
2026-05-01 10:47 38.83230 1.04830 4016 ft 239 kts 244°
2026-05-01 10:48 38.82289 1.03073 3947 ft 241 kts 224°
2026-05-01 10:48 38.80856 1.01994 3828 ft 241 kts 196°
2026-05-01 10:48 38.79195 1.01728 3714 ft 242 kts 175°
2026-05-01 10:48 38.77556 1.02276 3582 ft 248 kts 151°
2026-05-01 10:49 38.76210 1.03627 3462 ft 247 kts 127°
2026-05-01 10:49 38.75407 1.05532 3343 ft 243 kts 103°
2026-05-01 10:49 38.75261 1.07650 3208 ft 238 kts 81°
2026-05-01 10:49 38.75788 1.09711 3096 ft 252 kts 60°
2026-05-01 10:50 38.76624 1.11704 3006 ft 254 kts 60°
2026-05-01 10:50 38.77466 1.13701 3010 ft 256 kts 60°
2026-05-01 10:50 38.78308 1.15715 3019 ft 255 kts 60°
2026-05-01 10:50 38.79116 1.17656 3001 ft 237 kts 60°
2026-05-01 10:51 38.79862 1.19450 2813 ft 219 kts 60°
2026-05-01 10:51 38.80329 1.20570 2660 ft 213 kts 60°
2026-05-01 10:51 38.81251 1.22782 2298 ft 210 kts 60°
2026-05-01 10:51 38.81920 1.24388 2003 ft 195 kts 60°
2026-05-01 10:52 38.82523 1.25840 1780 ft 174 kts 61°
2026-05-01 10:52 38.83070 1.27155 1538 ft 161 kts 61°
2026-05-01 10:52 38.83573 1.28365 1348 ft 146 kts 60°
2026-05-01 10:52 38.83888 1.29120 1197 ft 139 kts 61°
2026-05-01 10:53 38.84324 1.30171 1022 ft 132 kts 61°
2026-05-01 10:53 38.84740 1.31194 834 ft 130 kts 62°
2026-05-01 10:53 38.85179 1.32242 680 ft 137 kts 63°
2026-05-01 10:53 38.85634 1.33330 545 ft 139 kts 62°
2026-05-01 10:54 38.86091 1.34420 352 ft 138 kts 64°
2026-05-01 10:54 38.86533 1.35478 146 ft 131 kts 64°
2026-05-01 10:54 38.86949 1.36505 9 ft 123 kts 60°
2026-05-01 10:54 38.87269 1.37287 11 ft 72 kts 62°
2026-05-01 10:55 38.87470 1.37745 10 ft 47 kts 60°
2026-05-01 10:55 38.87594 1.38053 13 ft 35 kts 69°
2026-05-01 10:55 38.87686 1.38259 14 ft 17 kts 32°
2026-05-01 10:55 38.87794 1.38202 10 ft 14 kts 335°
2026-05-01 10:56 38.87815 1.38137 10 ft 8 kts 234°
2026-05-01 10:56 38.87789 1.38079 10 ft 7 kts 242°
2026-05-01 10:56 38.87775 1.38045 9 ft 7 kts 242°
2026-05-01 10:57 38.87764 1.38017 9 ft 7 kts 242°
2026-05-01 10:57 38.87742 1.37964 9 ft 7 kts 242°
2026-05-01 10:57 38.87719 1.37911 10 ft 8 kts 242°
2026-05-01 10:57 38.87680 1.37821 9 ft 16 kts 242°
2026-05-01 10:58 38.87623 1.37682 11 ft 19 kts 241°
2026-05-01 10:58 38.87557 1.37526 9 ft 21 kts 242°
2026-05-01 10:58 38.87485 1.37350 9 ft 23 kts 242°
2026-05-01 10:58 38.87432 1.37225 9 ft 6 kts 242°
2026-05-01 10:59 38.87436 1.37195 9 ft 5 kts 315°
2026-05-01 10:59 38.87473 1.37168 9 ft 7 kts 333°
2026-05-01 10:59 38.87510 1.37143 9 ft 3 kts 333°
2026-05-01 10:59 38.87515 1.37140 9 ft 0 kts 333°